When you browse on this site, cookies collect data to enhance your experience and personalize the content and advertising you see.
Visit our Privacy Policy to learn more. By continuing to use the site, you agree to this use of cookies and data.
  • In Hungary
  • List of Countries
  • For 7 days
  • Water Temperature
  • Satellite Maps
  • Weather Map
  • News
  • Weather Widgets
  • user-avatar
    Login

    Hourly Weather Villarrica

    Today, 24 March, Sunday

    Time Temperature Precipitation Wind Pressure Humidity
    00:00 +10°C° 0 mm 1 mps 746 mmHg 89%
    01:00 +9°C° 0 mm 1 mps 746 mmHg 89%
    02:00 +9°C° 0 mm 1 mps 746 mmHg 88%
    03:00 +9°C° 0 mm 1 mps 745 mmHg 87%
    04:00 +9°C° 0 mm 1 mps 745 mmHg 85%
    05:00 +9°C° 0 mm 1 mps 745 mmHg 81%
    06:00 +10°C° 0 mm 1 mps 745 mmHg 76%
    07:00 +10°C° 0 mm 1 mps 745 mmHg 72%
    08:00 +14°C° 0 mm 1 mps 745 mmHg 60%
    09:00 +19°C° 0 mm 1 mps 745 mmHg 49%
    10:00 +23°C° 0 mm 1 mps 744 mmHg 37%
    11:00 +24°C° 0 mm 1 mps 744 mmHg 36%
    12:00 +25°C° 0 mm 2 mps 744 mmHg 34%
    13:00 +26°C° 0 mm 2 mps 743 mmHg 32%
    14:00 +25°C° 0 mm 2 mps 743 mmHg 35%
    15:00 +25°C° 0 mm 2 mps 743 mmHg 37%
    16:00 +24°C° 0 mm 2 mps 742 mmHg 40%
    17:00 +21°C° 0 mm 1 mps 743 mmHg 52%
    18:00 +18°C° 0 mm 1 mps 743 mmHg 64%
    19:00 +13°C° 0 mm 0 mps 743 mmHg 76%
    20:00 +12°C° 0 mm 0 mps 743 mmHg 81%
    21:00 +12°C° 0 mm 1 mps 743 mmHg 85%
    22:00 +11°C° 0 mm 1 mps 743 mmHg 90%
    23:00 +11°C° 0 mm 1 mps 743 mmHg 88%

    Tomorrow, 25 March, Monday

    Time Temperature Precipitation Wind Pressure Humidity
    00:00 +11°C° 0 mm 1 mps 743 mmHg 87%
    01:00 +10°C° 0 mm 1 mps 743 mmHg 85%
    02:00 +10°C° 0 mm 1 mps 743 mmHg 83%
    03:00 +10°C° 0 mm 1 mps 743 mmHg 81%
    04:00 +10°C° 0 mm 1 mps 743 mmHg 78%
    05:00 +10°C° 0 mm 1 mps 743 mmHg 75%
    06:00 +11°C° 0 mm 1 mps 743 mmHg 72%
    07:00 +11°C° 0 mm 1 mps 743 mmHg 69%
    08:00 +15°C° 0 mm 1 mps 743 mmHg 58%
    09:00 +20°C° 0 mm 1 mps 743 mmHg 48%
    10:00 +24°C° 0 mm 1 mps 743 mmHg 37%
    11:00 +26°C° 0 mm 1 mps 743 mmHg 34%
    12:00 +27°C° 0 mm 1 mps 743 mmHg 31%
    13:00 +29°C° 0 mm 1 mps 742 mmHg 28%
    14:00 +28°C° 0 mm 1 mps 742 mmHg 31%
    15:00 +28°C° 0 mm 2 mps 742 mmHg 34%
    16:00 +27°C° 0 mm 2 mps 741 mmHg 37%
    17:00 +24°C° 0 mm 1 mps 742 mmHg 47%
    18:00 +21°C° 0 mm 1 mps 742 mmHg 57%
    19:00 +18°C° 0 mm 1 mps 742 mmHg 67%
    20:00 +18°C° 0 mm 1 mps 742 mmHg 63%
    21:00 +18°C° 0 mm 1 mps 743 mmHg 60%
    22:00 +16°C° 0 mm 2 mps 743 mmHg 56%
    23:00 +17°C° 0 mm 2 mps 743 mmHg 54%

    Day after tomorrow, 26 March, Tuesday

    Time Temperature Precipitation Wind Pressure Humidity
    00:00 +17°C° 0 mm 2 mps 743 mmHg 51%
    01:00 +17°C° 0 mm 2 mps 743 mmHg 49%
    02:00 +17°C° 0 mm 2 mps 742 mmHg 48%
    03:00 +17°C° 0 mm 2 mps 742 mmHg 48%
    04:00 +17°C° 0 mm 2 mps 742 mmHg 48%
    05:00 +17°C° 0 mm 2 mps 742 mmHg 47%
    06:00 +17°C° 0 mm 3 mps 742 mmHg 47%
    07:00 +17°C° 0 mm 3 mps 742 mmHg 47%
    08:00 +20°C° 0 mm 3 mps 742 mmHg 42%
    09:00 +22°C° 0 mm 3 mps 742 mmHg 37%
    10:00 +26°C° 0 mm 4 mps 742 mmHg 32%
    11:00 +27°C° 0 mm 3 mps 742 mmHg 30%
    12:00 +29°C° 0 mm 3 mps 741 mmHg 27%
    13:00 +30°C° 0 mm 3 mps 741 mmHg 25%
    14:00 +30°C° 0 mm 3 mps 741 mmHg 27%
    15:00 +29°C° 0 mm 2 mps 740 mmHg 28%
    16:00 +29°C° 0 mm 2 mps 740 mmHg 30%
    17:00 +27°C° 0 mm 2 mps 740 mmHg 32%
    18:00 +24°C° 0 mm 2 mps 740 mmHg 34%
    19:00 +21°C° 0 mm 3 mps 741 mmHg 36%
    20:00 +21°C° 0 mm 3 mps 741 mmHg 36%
    21:00 +20°C° 0 mm 3 mps 741 mmHg 36%
    22:00 +19°C° 0 mm 3 mps 741 mmHg 35%
    23:00 +19°C° 0 mm 3 mps 741 mmHg 37%

    27 March, Wednesday

    Time Temperature Precipitation Wind Pressure Humidity
    00:00 +18°C° 0 mm 3 mps 741 mmHg 39%
    01:00 +17°C° 0 mm 2 mps 741 mmHg 41%
    02:00 +17°C° 0 mm 2 mps 741 mmHg 43%
    03:00 +16°C° 0 mm 2 mps 741 mmHg 45%
    04:00 +16°C° 0 mm 2 mps 741 mmHg 47%
    05:00 +15°C° 0 mm 2 mps 741 mmHg 48%
    06:00 +15°C° 0 mm 2 mps 741 mmHg 50%
    07:00 +15°C° 0 mm 2 mps 741 mmHg 52%
    08:00 +20°C° 0 mm 1 mps 741 mmHg 46%
    09:00 +23°C° 0 mm 1 mps 742 mmHg 40%
    10:00 +27°C° 0 mm 1 mps 742 mmHg 34%
    11:00 +28°C° 0 mm 1 mps 741 mmHg 31%
    12:00 +30°C° 0 mm 1 mps 741 mmHg 28%
    13:00 +30°C° 0 mm 0 mps 741 mmHg 25%
    14:00 +31°C° 0 mm 1 mps 741 mmHg 27%
    15:00 +31°C° 0 mm 1 mps 741 mmHg 29%
    16:00 +30°C° 0 mm 1 mps 740 mmHg 31%
    17:00 +27°C° 0 mm 1 mps 741 mmHg 40%
    18:00 +23°C° 0 mm 1 mps 741 mmHg 49%
    19:00 +20°C° 0 mm 1 mps 741 mmHg 58%
    20:00 +19°C° 0 mm 1 mps 742 mmHg 61%
    21:00 +18°C° 0 mm 1 mps 742 mmHg 64%
    22:00 +16°C° 0 mm 1 mps 742 mmHg 67%
    23:00 +16°C° 0 mm 1 mps 742 mmHg 67%

    28 March, Thursday

    Time Temperature Precipitation Wind Pressure Humidity
    00:00 +16°C° 0 mm 1 mps 742 mmHg 68%
    01:00 +15°C° 0 mm 1 mps 742 mmHg 68%
    02:00 +15°C° 0 mm 1 mps 742 mmHg 68%
    03:00 +15°C° 0 mm 1 mps 742 mmHg 68%
    04:00 +15°C° 0 mm 1 mps 742 mmHg 68%
    05:00 +15°C° 0 mm 1 mps 742 mmHg 66%
    06:00 +16°C° 0 mm 1 mps 743 mmHg 65%
    07:00 +16°C° 0 mm 1 mps 743 mmHg 64%
    08:00 +21°C° 0 mm 1 mps 743 mmHg 53%
    09:00 +24°C° 0 mm 1 mps 743 mmHg 43%
    10:00 +28°C° 0 mm 1 mps 743 mmHg 33%
    11:00 +29°C° 0 mm 1 mps 743 mmHg 31%
    12:00 +30°C° 0 mm 1 mps 743 mmHg 28%
    13:00 +31°C° 0 mm 1 mps 743 mmHg 25%
    14:00 +30°C° 0 mm 1 mps 743 mmHg 27%
    15:00 +29°C° 0 mm 1 mps 742 mmHg 29%
    16:00 +29°C° 0 mm 1 mps 742 mmHg 30%
    17:00 +26°C° 0 mm 1 mps 743 mmHg 38%
    18:00 +22°C° 0 mm 1 mps 743 mmHg 45%
    19:00 +19°C° 0 mm 1 mps 743 mmHg 53%
    20:00 +18°C° 0 mm 1 mps 743 mmHg 56%
    21:00 +16°C° 0 mm 1 mps 743 mmHg 60%
    22:00 +15°C° 0 mm 1 mps 743 mmHg 63%
    23:00 +14°C° 0 mm 1 mps 743 mmHg 64%

    29 March, Friday

    Time Temperature Precipitation Wind Pressure Humidity
    00:00 +14°C° 0 mm 1 mps 743 mmHg 65%
    01:00 +13°C° 0 mm 1 mps 743 mmHg 66%
    02:00 +13°C° 0 mm 1 mps 742 mmHg 64%
    03:00 +13°C° 0 mm 1 mps 742 mmHg 62%
    04:00 +13°C° 0 mm 1 mps 742 mmHg 59%
    05:00 +13°C° 0 mm 1 mps 742 mmHg 57%
    06:00 +14°C° 0 mm 1 mps 742 mmHg 55%
    07:00 +14°C° 0 mm 1 mps 742 mmHg 53%
    08:00 +19°C° 0 mm 1 mps 742 mmHg 45%
    09:00 +22°C° 0 mm 1 mps 742 mmHg 37%
    10:00 +26°C° 0 mm 1 mps 742 mmHg 30%
    11:00 +27°C° 0 mm 1 mps 741 mmHg 32%
    12:00 +28°C° 0 mm 2 mps 741 mmHg 34%
    13:00 +29°C° 0 mm 2 mps 741 mmHg 36%
    14:00 +29°C° 0 mm 2 mps 740 mmHg 40%
    15:00 +29°C° 0 mm 2 mps 740 mmHg 43%
    16:00 +28°C° 0 mm 2 mps 740 mmHg 46%
    17:00 +26°C° 0 mm 2 mps 740 mmHg 57%
    18:00 +23°C° 0 mm 1 mps 741 mmHg 68%
    19:00 +20°C° 0 mm 1 mps 741 mmHg 78%
    20:00 +19°C° 0 mm 1 mps 741 mmHg 83%
    21:00 +18°C° 0 mm 1 mps 741 mmHg 88%
    22:00 +16°C° 0 mm 1 mps 741 mmHg 92%
    23:00 +16°C° 0 mm 1 mps 741 mmHg 92%
    Show more